Location: Estes Park
(40.3770°N, 105.5210°W)
Time: 01:57:09
(UTC-06:00)

OTV 5 (USA 277) - Pass Details

Date: 13 October 2017
Orbit: 404 x 417 km, 43.0° (Epoch: 07 September)

Event Time Altitude Azimuth Distance (km) Brightness Sun altitude
Rises 19:55:24 0° 268° (W) 2,346 ? -18.1°
Reaches altitude 10° 19:57:32 10° 272° (W) 1,484 ? -18.5°
Maximum altitude 20:00:51 57° 352° (N) 492 ? -19.1°
Enters shadow 20:01:14 52° 24° (NNE) 518 ? -19.2°
